Location: Unspecified
(41.5000°N, 0.0000°E)
Time: 20:33:53
(UTC+00:00)

A-11 Canister half - Pass Details

Date: 25 June 2019
Orbit: 1526 x 1683 km, 47.3° (Epoch: 17 July)

Event Time Altitude Azimuth Distance (km) Brightness Sun altitude
Exits shadow 01:45:40 20° 167° (SSE) 3,065 10.1 -20.8°
Maximum altitude 01:49:58 28° 130° (SE) 2,634 10.1 -20.5°
Drops below altitude 10° 01:57:25 10° 77° (ENE) 3,722 11.6 -19.9°
Sets 02:01:00 0° 66° (ENE) 4,694 12.4 -19.5°
